GFSNE_con_mucape_096.txt.gz
CAPE
24 44 45 40 73 33 74 76 60 48 37 13 24 44 60 44 42 38 37 18 19 16 10 27 17 21 22 30 27 11 6 2 0 0 0 1 0 0
36 40 18 5 40 68 65 65 68 52 3 0 2 3 17 18 38 41 38 23 24 14 6 7 13 18 14 16 14 11 21 12 10 1 0 0 0 1
29 20 30 30 66 84 76 63 58 67 65 2 6 5 6 11 14 23 35 36 36 38 13 19 10 15 19 20 11 7 34 37 3 0 0 6 4 3
12 32 36 51 82 81 82 69 86 76 74 31 9 6 10 15 26 20 24 34 20 17 10 29 17 11 16 3 10 2 1 18 5 2 1 9 7 9
32 25 42 77 74 50 56 65 86 89 77 88 40 32 23 20 17 1 7 12 7 12 0 0 4 2 6 1 10 8 1 0 2 0 2 6 3 8
21 24 39 65 41 26 64 86 90 106 92 88 77 58 34 27 7 0 5 0 0 1 8 1 0 0 4 1 3 0 0 0 0 1 1 2 0 0
2 16 23 24 30 33 50 67 108 99 131 113 95 55 67 18 0 18 2 12 11 1 8 6 3 3 1 0 0 0 0 0 0 0 0 0 0 0
12 18 30 29 34 49 92 126 108 108 158 84 71 31 23 13 0 1 2 0 0 1 0 0 0 0 0 0 0 0 0 0 0 0 0 0 0 0
20 49 57 37 19 86 106 79 66 81 61 59 31 11 0 13 0 0 0 0 0 0 0 0 0 0 0 0 0 0 0 0 0 0 0 0 0 0
0 3 5 27 60 97 72 58 41 8 13 22 0 1 2 0 2 0 0 0 1 0 0 0 0 0 0 0 0 0 0 0 0 0 0 0 0 0
72 50 54 39 85 49 56 32 48 41 16 32 5 1 5 3 4 0 2 3 0 0 0 0 0 0 0 0 0 0 0 0 0 0 0 0 0 0
63 56 64 99 102 52 67 12 29 11 37 2 2 0 0 1 0 0 0 0 0 0 0 0 0 0 0 0 0 0 0 0 0 0 0 0 0 0
174 123 128 104 90 65 13 76 13 8 0 0 0 0 0 0 0 0 0 0 0 0 0 0 0 0 0 0 0 0 0 0 0 0 0 0 0 0
98 70 34 41 34 43 15 5 0 1 0 0 0 0 0 0 0 0 0 0 0 0 0 0 0 0 0 0 0 0 0 0 0 0 0 0 0 0
45 43 21 25 0 0 0 0 0 0 0 0 0 0 0 0 0 0 0 0 0 0 0 0 0 0 0 0 0 0 0 0 0 0 0 0 0 0
0 23 0 0 0 0 0 0 0 0 0 0 0 0 0 0 0 0 0 0 0 0 0 0 0 0 0 0 0 0 0 0 0 0 0 0 0 0
0 0 0 0 0 0 0 0 0 0 0 0 0 0 0 0 0 0 0 0 0 0 0 0 0 0 0 0 0 0 0 0 0 0 0 0 0 0
0 0 0 0 0 0 0 0 0 0 0 0 0 0 0 0 0 0 0 0 0 0 0 0 0 0 0 0 0 0 0 0 0 0 0 0 0 0
0 0 0 0 0 0 0 0 0 0 0 0 0 0 0 0 0 0 0 0 0 0 0 0 0 0 0 0 0 0 0 0 0 0 0 0 0 0
0 0 0 0 0 0 0 0 0 0 0 0 0 0 0 0 0 0 0 0 0 0 0 0 0 0 0 0 0 0 0 0 0 0 0 0 0 0
0 0 0 0 0 0 0 0 0 0 0 0 0 0 0 0 0 0 0 0 0 0 0 0 0 0 0 0 0 0 0 0 0 0 0 0 0 0
0 0 0 0 0 0 0 0 0 0 0 0 0 0 0 0 0 0 0 0 0 0 0 0 0 0 0 0 0 0 0 0 0 0 0 0 0 0
0 0 0 0 0 0 0 0 0 0 0 0 0 0 0 0 0 0 0 0 0 0 0 0 0 0 0 0 0 0 0 0 0 0 0 0 0 0

GFSNE_con_mucape_099.txt.gz
CAPE
13 0 0 0 18 20 13 20 12 10 0 40 17 64 64 46 26 38 36 32 37 18 9 22 11 19 30 32 35 21 10 18 8 11 19 11 1 0
38 23 4 28 49 47 30 30 32 60 51 26 9 0 8 14 15 29 22 18 25 22 8 10 6 3 11 5 28 19 20 12 21 4 4 3 2 2
22 33 35 45 51 24 7 9 37 62 55 3 0 0 3 16 25 21 20 13 14 7 17 29 26 25 19 16 4 7 12 20 18 12 2 0 2 8
12 21 5 20 34 26 10 22 29 58 60 0 0 0 0 0 24 19 26 30 18 25 2 1 5 20 8 7 0 10 9 1 30 5 1 0 1 0
1 10 1 10 20 38 30 28 30 36 51 45 0 0 0 4 1 7 4 7 10 19 2 12 9 17 2 1 17 2 3 1 7 2 0 1 0 0
0 0 11 10 25 31 31 33 37 43 42 49 46 32 10 5 10 22 15 21 17 20 15 2 5 7 10 4 2 3 3 9 12 5 4 5 0 3
1 7 10 17 36 43 43 43 48 48 42 30 22 20 23 24 33 16 18 10 0 5 2 3 6 10 3 13 9 9 4 4 3 0 0 2 0 0
0 2 17 38 41 44 36 44 59 53 40 26 21 33 40 62 46 59 2 0 0 0 0 1 3 3 1 0 0 0 0 0 0 0 0 0 0 0
0 0 0 9 15 29 26 21 29 34 3 42 80 43 43 39 7 10 10 5 4 1 0 1 2 4 1 0 0 0 0 0 0 0 0 0 0 0
0 3 5 2 2 3 10 17 14 7 14 29 60 21 41 16 10 2 4 11 0 0 0 0 0 0 0 0 0 0 0 0 0 0 0 0 0 0
18 17 0 0 0 0 0 0 0 0 2 2 12 4 6 1 2 10 1 0 0 0 0 0 0 0 0 0 0 0 0 0 0 0 0 0 0 0
10 28 33 44 15 46 21 8 13 26 22 20 2 12 4 1 0 0 0 0 0 0 0 0 0 0 0 0 0 0 0 0 0 0 0 0 0 0
112 89 64 46 2 10 16 14 11 16 6 7 11 0 0 0 0 0 0 0 0 0 0 0 0 0 0 0 0 0 0 0 0 0 0 0 0 0
63 68 74 52 43 49 40 65 31 0 8 0 0 0 0 0 0 0 0 0 0 0 0 0 0 0 0 0 0 0 0 0 0 0 0 0 0 0
104 113 66 78 81 24 2 0 0 0 0 0 0 0 0 0 0 0 0 0 0 0 0 0 0 0 0 0 0 0 0 0 0 0 0 0 0 0
19 0 15 0 2 0 0 0 0 0 0 0 0 0 0 0 0 0 0 0 0 0 0 0 0 0 0 0 0 0 0 0 0 0 0 0 0 0
8 0 0 0 0 0 0 0 0 0 0 0 0 0 0 0 0 0 0 0 0 0 0 0 0 0 0 0 0 0 0 0 0 0 0 0 0 0
0 0 0 0 0 0 0 0 0 0 0 0 0 0 0 0 0 0 0 0 0 0 0 0 0 0 0 0 0 0 0 0 0 0 0 0 0 0
0 0 0 0 0 0 0 0 0 0 0 0 0 0 0 0 0 0 0 0 0 0 0 0 0 0 0 0 0 0 0 0 0 0 0 0 0 0
0 0 0 0 0 0 0 0 0 0 0 0 0 0 0 0 0 0 0 0 0 0 0 0 0 0 0 0 0 0 0 0 0 0 0 0 0 0
0 0 0 0 0 0 0 0 0 0 0 0 0 0 0 0 0 0 0 0 0 0 0 0 0 0 0 0 0 0 0 0 0 0 0 0 0 0
0 0 0 0 0 0 0 0 0 0 0 0 0 0 0 0 0 0 0 0 0 0 0 0 0 0 0 0 0 0 0 0 0 0 0 0 0 0
0 0 0 0 0 0 0 0 0 0 0 0 0 0 0 0 0 0 0 0 0 0 0 0 0 0 0 0 0 0 0 0 0 0 0 0 0 0

GFSNE_con_mucape_102.txt.gz
CAPE
43 45 24 2 45 46 48 35 44 0 11 20 18 37 67 62 45 38 21 11 9 4 14 20 17 21 34 44 13 8 15 23 32 16 38 51 79 60
0 1 0 11 4 21 38 9 6 2 6 19 38 68 76 59 35 20 13 8 14 20 22 13 13 18 30 20 30 24 34 30 13 31 23 13 5 6
0 0 0 24 28 28 48 56 36 50 0 5 5 34 45 54 42 19 15 18 27 31 36 27 17 14 9 0 6 6 2 21 23 16 18 13 8 11
0 0 0 29 29 28 58 69 58 36 7 0 2 22 21 33 33 21 26 35 16 6 8 1 6 9 41 0 0 8 23 30 12 9 8 9 1 1
0 11 6 0 3 26 19 26 41 31 36 34 2 9 0 3 4 14 12 12 9 0 0 3 4 4 13 22 10 6 4 15 3 9 15 3 0 0
0 14 5 3 0 6 7 0 14 16 11 25 21 0 0 0 0 0 0 3 9 19 21 6 1 1 0 0 3 1 2 9 9 0 8 3 1 1
0 1 8 2 3 0 2 48 20 33 25 88 81 18 1 1 4 3 3 5 23 20 27 4 6 0 3 0 0 0 0 4 5 6 6 1 0 0
0 0 0 0 0 5 26 20 29 53 12 0 36 16 65 19 19 7 14 72 0 19 10 2 0 0 0 4 4 1 0 0 0 0 0 0 1 4
0 0 0 0 7 9 6 3 31 4 30 55 44 48 62 59 16 49 38 11 2 0 3 0 0 4 1 0 0 0 0 0 0 0 0 0 0 0
0 0 0 0 0 1 3 9 12 14 17 21 16 11 6 7 11 10 3 3 0 0 2 3 0 0 0 0 0 0 0 0 0 0 0 0 0 0
0 0 0 0 0 8 11 13 14 11 11 7 8 7 2 8 4 0 9 6 0 2 0 0 0 0 0 0 0 0 0 0 0 0 0 0 0 0
11 7 3 8 11 18 27 29 22 5 4 13 8 4 14 2 1 6 4 0 3 1 0 0 0 0 0 0 0 0 0 0 0 0 0 0 0 0
29 25 22 33 41 47 59 41 29 35 22 1 2 7 4 0 0 0 0 0 0 0 0 0 0 0 0 0 0 0 0 0 0 0 0 0 0 0
21 40 27 27 12 24 34 17 22 24 3 0 2 2 0 0 0 0 0 0 0 0 0 0 0 0 0 0 0 0 0 0 0 0 0 0 0 0
0 0 16 0 0 23 39 2 13 0 0 0 0 0 0 0 0 0 0 0 0 0 0 0 0 0 0 0 0 0 0 0 0 0 0 0 0 0
0 0 0 0 0 0 0 0 0 0 0 0 0 0 0 0 0 0 0 0 0 0 0 0 0 0 0 0 0 0 0 0 0 0 0 0 0 0
0 0 0 0 0 0 0 0 0 0 0 0 0 0 0 0 0 0 0 0 0 0 0 0 0 0 0 0 0 0 0 0 0 0 0 0 0 0
0 0 0 0 0 0 0 0 0 0 0 0 0 0 0 0 0 0 0 0 0 0 0 0 0 0 0 0 0 0 0 0 0 0 0 0 0 0
0 0 0 0 0 0 0 0 0 0 0 0 0 0 0 0 0 0 0 0 0 0 0 0 0 0 0 0 0 0 0 0 0 0 0 0 0 0
0 0 0 0 0 0 0 0 0 0 0 0 0 0 0 0 0 0 0 0 0 0 0 0 0 0 0 0 0 0 0 0 0 0 0 0 0 0
0 0 0 0 0 0 0 0 0 0 0 0 0 0 0 0 0 0 0 0 0 0 0 0 0 0 0 0 0 0 0 0 0 0 0 0 0 0
0 0 0 0 0 0 0 0 0 0 0 0 0 0 0 0 0 0 0 0 0 0 0 0 0 0 0 0 0 0 0 0 0 0 0 0 0 0
0 0 0 0 0 0 0 0 0 0 0 0 0 0 0 0 0 0 0 0 0 0 0 0 0 0 0 0 0 0 0 0 0 0 0 0 0 0

GFSNE_con_mucape_105.txt.gz
CAPE
0 81 86 87 45 48 120 111 150 124 111 119 112 67 44 37 29 42 31 34 26 15 10 10 15 23 31 30 23 19 23 26 23 2 0 7 16 45
0 48 59 68 21 126 51 27 75 154 129 98 98 138 69 42 55 38 42 28 18 9 8 20 25 23 20 13 9 0 3 1 4 12 5 8 2 2
5 0 3 2 80 88 15 2 7 52 79 63 66 66 41 64 71 40 34 29 17 11 12 25 30 32 33 21 11 11 5 7 2 5 10 1 20 19
1 0 0 0 3 44 1 22 35 99 125 117 60 12 1 34 61 44 29 25 22 24 27 23 10 6 1 2 5 5 3 16 4 6 4 10 2 8
0 0 0 0 0 27 0 24 34 42 71 125 87 26 4 28 35 45 40 40 35 19 10 7 4 8 16 3 6 1 1 6 1 0 2 1 2 1
0 1 0 1 1 0 20 24 30 0 0 0 29 3 11 10 19 25 36 37 21 13 14 17 12 9 15 5 11 7 5 1 3 4 0 4 2 2
3 0 3 7 4 0 0 0 0 0 0 0 1 0 1 0 5 13 23 16 26 25 6 2 6 5 2 0 0 1 1 2 7 10 4 2 2 0
7 7 9 4 7 8 10 5 7 4 1 26 3 0 10 7 11 0 0 40 34 6 1 0 4 12 4 1 1 6 7 1 1 0 0 0 0 0
8 4 12 1 10 6 5 6 2 49 0 1 0 0 2 10 1 10 32 10 0 7 4 2 5 1 1 1 0 1 0 0 0 0 0 0 0 0
36 33 10 0 0 5 2 3 2 12 2 2 1 1 0 2 19 15 0 0 1 0 0 0 0 0 0 0 0 0 0 0 0 0 0 0 0 0
0 0 0 6 0 6 8 11 7 4 2 2 3 5 12 19 16 20 5 9 5 3 0 0 0 0 0 0 0 0 0 0 0 0 0 0 0 0
1 7 13 21 7 1 1 2 0 3 1 2 1 10 7 11 14 8 0 0 0 4 0 0 0 0 0 0 0 0 0 0 0 0 0 0 0 0
5 5 6 11 21 14 19 10 14 20 13 6 7 0 0 1 4 0 0 0 0 0 0 0 0 0 0 0 0 0 0 0 0 0 0 0 0 0
0 0 0 0 28 4 1 16 6 5 5 0 0 3 5 0 0 0 0 0 0 0 0 0 0 0 0 0 0 0 0 0 0 0 0 0 0 0
0 6 0 0 0 0 2 0 0 0 0 0 0 0 0 0 0 0 0 0 0 0 0 0 0 0 0 0 0 0 0 0 0 0 0 0 0 0
11 0 0 0 0 0 0 0 0 0 0 0 0 0 0 0 0 0 0 0 0 0 0 0 0 0 0 0 0 0 0 0 0 0 0 0 0 0
0 0 0 0 0 0 0 0 0 0 0 0 0 0 0 0 0 0 0 0 0 0 0 0 0 0 0 0 0 0 0 0 0 0 0 0 0 0
0 0 0 0 0 0 0 0 0 0 0 0 0 0 0 0 0 0 0 0 0 0 0 0 0 0 0 0 0 0 0 0 0 0 0 0 0 0
0 0 0 0 0 0 0 0 0 0 0 0 0 0 0 0 0 0 0 0 0 0 0 0 0 0 0 0 0 0 0 0 0 0 0 0 0 0
0 0 0 0 0 0 0 0 0 0 0 0 0 0 0 0 0 0 0 0 0 0 0 0 0 0 0 0 0 0 0 0 0 0 0 0 0 0
0 0 0 0 0 0 0 0 0 0 0 0 0 0 0 0 0 0 0 0 0 0 0 0 0 0 0 0 0 0 0 0 0 0 0 0 0 0
0 0 0 0 0 0 0 0 0 0 0 0 0 0 0 0 0 0 0 0 0 0 0 0 0 0 0 0 0 0 0 0 0 0 0 0 0 0
0 0 0 0 0 0 0 0 0 0 0 0 0 0 0 0 0 0 0 0 0 0 0 0 0 0 0 0 0 0 0 0 0 0 0 0 0 0